PKSST WAHI-WADD

Flight info

Callsign PKSST
Flight time 1h 0m
Altitude 35000
Route SO W17N PURWO DCT BA T3 MOVMO
Aircraft A21N/M-SDE2E3FGHIRWXY/LB1

Departure

Time 2026-05-09 09:05
Airport Yogyakarta International Airport (WAHI)

Arrival

Time 2026-05-09 10:05
Airport Denpasar I Gusti Ngurah Rai International Airport (WADD)
Time Latitude Longitude Altitude Speed Heading
2026-05-09 08:50 -7.90120 110.05866 22 ft 0 kts 20°
2026-05-09 08:52 -7.90124 110.05864 23 ft 0 kts 19°
2026-05-09 08:54 -7.90128 110.05863 24 ft 2 kts 17°
2026-05-09 08:54 -7.90144 110.05858 24 ft 2 kts 13°
2026-05-09 08:54 -7.90160 110.05855 26 ft 2 kts
2026-05-09 08:55 -7.90177 110.05854 25 ft 2 kts 358°
2026-05-09 08:55 -7.90193 110.05856 24 ft 2 kts 343°
2026-05-09 08:55 -7.90208 110.05863 26 ft 2 kts 321°
2026-05-09 08:55 -7.90219 110.05876 25 ft 2 kts 300°
2026-05-09 08:56 -7.90223 110.05884 25 ft 0 kts 292°
2026-05-09 08:56 -7.90223 110.05885 25 ft 0 kts 292°
2026-05-09 08:58 -7.90223 110.05884 25 ft 0 kts 292°
2026-05-09 08:58 -7.90219 110.05875 25 ft 5 kts 292°
2026-05-09 08:58 -7.90211 110.05843 24 ft 5 kts 278°
2026-05-09 08:59 -7.90213 110.05812 25 ft 4 kts 245°
2026-05-09 08:59 -7.90234 110.05791 23 ft 4 kts 211°
2026-05-09 08:59 -7.90267 110.05776 23 ft 8 kts 200°
2026-05-09 08:59 -7.90333 110.05742 24 ft 14 kts 225°
2026-05-09 09:00 -7.90328 110.05641 26 ft 18 kts 294°
2026-05-09 09:00 -7.90275 110.05508 23 ft 22 kts 290°
2026-05-09 09:00 -7.90221 110.05363 25 ft 22 kts 292°
2026-05-09 09:00 -7.90168 110.05222 22 ft 21 kts 290°
2026-05-09 09:01 -7.90118 110.05085 22 ft 21 kts 289°
2026-05-09 09:01 -7.90069 110.04950 22 ft 20 kts 289°
2026-05-09 09:01 -7.90022 110.04818 23 ft 20 kts 290°
2026-05-09 09:01 -7.89975 110.04689 24 ft 19 kts 290°
2026-05-09 09:02 -7.89929 110.04564 23 ft 19 kts 290°
2026-05-09 09:02 -7.89884 110.04441 22 ft 19 kts 290°
2026-05-09 09:02 -7.89864 110.04321 22 ft 17 kts 240°
2026-05-09 09:02 -7.89906 110.04299 23 ft 5 kts 156°
2026-05-09 09:03 -7.89989 110.04344 25 ft 19 kts 153°
2026-05-09 09:03 -7.90058 110.04416 25 ft 0 kts 110°
2026-05-09 09:03 -7.90059 110.04419 25 ft 1 kts 110°
2026-05-09 09:03 -7.90062 110.04425 24 ft 1 kts 110°
2026-05-09 09:04 -7.90110 110.04558 23 ft 51 kts 110°
2026-05-09 09:04 -7.90302 110.05083 24 ft 111 kts 110°
2026-05-09 09:04 -7.90641 110.06018 30 ft 168 kts 110°
2026-05-09 09:04 -7.91058 110.07143 543 ft 168 kts 111°
2026-05-09 09:05 -7.91293 110.08284 1079 ft 173 kts 78°
2026-05-09 09:05 -7.90616 110.09246 1592 ft 174 kts 26°
2026-05-09 09:05 -7.89369 110.09345 1892 ft 197 kts 339°
2026-05-09 09:05 -7.88316 110.08416 2142 ft 220 kts 296°
2026-05-09 09:06 -7.88122 110.06844 2466 ft 239 kts 256°
2026-05-09 09:06 -7.89016 110.05422 3007 ft 250 kts 218°
2026-05-09 09:06 -7.90664 110.04794 3609 ft 261 kts 180°
2026-05-09 09:06 -7.92403 110.05272 4420 ft 264 kts 145°
2026-05-09 09:07 -7.93568 110.06656 5267 ft 267 kts 111°
2026-05-09 09:07 -7.93780 110.08502 6076 ft 270 kts 78°
2026-05-09 09:07 -7.92942 110.10182 6868 ft 273 kts 47°
2026-05-09 09:07 -7.91660 110.11605 7666 ft 276 kts 53°
2026-05-09 09:08 -7.90609 110.13220 8446 ft 279 kts 59°
2026-05-09 09:08 -7.89610 110.14923 9225 ft 283 kts 59°
2026-05-09 09:08 -7.88507 110.16579 9956 ft 287 kts 43°
2026-05-09 09:08 -7.86764 110.17602 10432 ft 301 kts 14°
2026-05-09 09:09 -7.84615 110.17625 10693 ft 322 kts 345°
2026-05-09 09:09 -7.82579 110.16566 10955 ft 342 kts 320°
2026-05-09 09:09 -7.80777 110.14948 11233 ft 360 kts 323°
2026-05-09 09:09 -7.78525 110.13719 11558 ft 375 kts 336°
2026-05-09 09:10 -7.76037 110.12798 12120 ft 383 kts 348°
2026-05-09 09:10 -7.73367 110.12593 12747 ft 388 kts
2026-05-09 09:10 -7.70658 110.12829 13372 ft 393 kts 11°
2026-05-09 09:10 -7.68074 110.13678 13962 ft 397 kts 27°
2026-05-09 09:11 -7.65843 110.15322 14545 ft 400 kts 46°
2026-05-09 09:11 -7.64095 110.17532 15111 ft 403 kts 56°
2026-05-09 09:11 -7.62654 110.19938 15696 ft 406 kts 61°
2026-05-09 09:11 -7.61352 110.22485 16299 ft 409 kts 64°
2026-05-09 09:12 -7.60100 110.25086 16870 ft 412 kts 64°
2026-05-09 09:12 -7.58859 110.27673 17418 ft 415 kts 64°
2026-05-09 09:12 -7.57576 110.30296 17916 ft 419 kts 63°
2026-05-09 09:12 -7.56251 110.32933 18414 ft 422 kts 63°
2026-05-09 09:13 -7.54893 110.35587 18880 ft 426 kts 62°
2026-05-09 09:13 -7.53527 110.38220 19309 ft 429 kts 62°
2026-05-09 09:13 -7.52126 110.40904 19696 ft 433 kts 62°
2026-05-09 09:13 -7.50712 110.43605 19999 ft 437 kts 62°
2026-05-09 09:14 -7.49303 110.46296 20231 ft 440 kts 62°
2026-05-09 09:14 -7.47867 110.49039 20455 ft 443 kts 62°
2026-05-09 09:14 -7.46441 110.51768 20858 ft 444 kts 62°
2026-05-09 09:14 -7.45001 110.54524 21329 ft 445 kts 62°
2026-05-09 09:15 -7.43557 110.57289 21770 ft 446 kts 62°
2026-05-09 09:15 -7.42105 110.60069 22177 ft 448 kts 62°
2026-05-09 09:15 -7.40649 110.62858 22570 ft 450 kts 62°
2026-05-09 09:15 -7.39185 110.65661 22955 ft 453 kts 62°
2026-05-09 09:16 -7.37708 110.68487 23350 ft 455 kts 62°
2026-05-09 09:16 -7.34757 110.74134 24119 ft 459 kts 62°
2026-05-09 09:16 -7.33260 110.76997 24499 ft 462 kts 62°
2026-05-09 09:17 -7.31756 110.79873 24864 ft 464 kts 62°
2026-05-09 09:17 -7.30266 110.82722 25206 ft 466 kts 62°
2026-05-09 09:17 -7.28746 110.85629 25618 ft 466 kts 62°
2026-05-09 09:17 -7.27230 110.88526 26112 ft 464 kts 62°
2026-05-09 09:18 -7.25724 110.91404 26563 ft 463 kts 62°
2026-05-09 09:18 -7.24239 110.94241 26968 ft 462 kts 62°
2026-05-09 09:18 -7.22731 110.97122 27348 ft 462 kts 62°
2026-05-09 09:18 -7.21229 110.99991 27715 ft 461 kts 62°
2026-05-09 09:19 -7.19736 111.02842 28079 ft 461 kts 62°
2026-05-09 09:19 -7.18243 111.05693 28438 ft 460 kts 62°
2026-05-09 09:19 -7.16765 111.08515 28781 ft 459 kts 62°
2026-05-09 09:19 -7.15270 111.11368 29147 ft 458 kts 62°
2026-05-09 09:20 -7.13778 111.14216 29493 ft 458 kts 62°
2026-05-09 09:20 -7.12309 111.17018 29818 ft 457 kts 62°
2026-05-09 09:20 -7.10816 111.19866 30142 ft 457 kts 62°
2026-05-09 09:20 -7.09334 111.22692 30450 ft 456 kts 62°
2026-05-09 09:21 -7.07850 111.25522 30748 ft 456 kts 62°
2026-05-09 09:21 -7.06387 111.28310 31036 ft 455 kts 62°
2026-05-09 09:21 -7.04907 111.31133 31319 ft 454 kts 62°
2026-05-09 09:21 -7.03428 111.33952 31594 ft 454 kts 62°
2026-05-09 09:22 -7.02087 111.36839 31836 ft 454 kts 70°
2026-05-09 09:22 -7.01221 111.39856 32067 ft 453 kts 80°
2026-05-09 09:22 -7.00929 111.43021 32284 ft 453 kts 91°
2026-05-09 09:22 -7.01306 111.46167 32490 ft 453 kts 104°
2026-05-09 09:23 -7.02257 111.49192 32702 ft 452 kts 110°
2026-05-09 09:23 -7.03381 111.52112 32926 ft 452 kts 112°
2026-05-09 09:23 -7.04203 111.54087 33072 ft 452 kts 113°
2026-05-09 09:23 -7.05866 111.57936 33350 ft 451 kts 114°
2026-05-09 09:24 -7.06704 111.59861 33482 ft 451 kts 114°
2026-05-09 09:24 -7.08367 111.63707 33741 ft 451 kts 113°
2026-05-09 09:24 -7.09205 111.65667 33898 ft 450 kts 113°
2026-05-09 09:24 -7.10830 111.69505 34143 ft 449 kts 113°
2026-05-09 09:25 -7.11638 111.71428 34269 ft 449 kts 113°
2026-05-09 09:25 -7.12856 111.74338 34441 ft 449 kts 112°
2026-05-09 09:25 -7.14070 111.77245 34617 ft 448 kts 112°
2026-05-09 09:25 -7.15264 111.80107 34773 ft 448 kts 112°
2026-05-09 09:26 -7.16477 111.83014 34935 ft 448 kts 112°
2026-05-09 09:26 -7.17689 111.85917 35006 ft 449 kts 112°
2026-05-09 09:26 -7.20111 111.91717 34998 ft 448 kts 112°
2026-05-09 09:27 -7.22519 111.97484 34998 ft 448 kts 112°
2026-05-09 09:27 -7.24938 112.03279 35001 ft 448 kts 112°
2026-05-09 09:28 -7.27347 112.09052 34996 ft 448 kts 112°
2026-05-09 09:28 -7.29762 112.14843 35001 ft 448 kts 112°
2026-05-09 09:29 -7.32164 112.20604 35003 ft 448 kts 112°
2026-05-09 09:29 -7.34583 112.26410 35004 ft 448 kts 112°
2026-05-09 09:30 -7.36999 112.32211 34998 ft 448 kts 112°
2026-05-09 09:30 -7.39414 112.38010 35004 ft 448 kts 112°
2026-05-09 09:31 -7.41815 112.43779 34996 ft 448 kts 112°
2026-05-09 09:32 -7.45420 112.52446 34998 ft 448 kts 112°
2026-05-09 09:32 -7.47838 112.58262 34999 ft 448 kts 112°
2026-05-09 09:33 -7.50245 112.64053 35003 ft 448 kts 112°
2026-05-09 09:33 -7.52638 112.69816 35004 ft 448 kts 112°
2026-05-09 09:34 -7.55051 112.75627 34998 ft 448 kts 112°
2026-05-09 09:34 -7.57444 112.81393 35002 ft 448 kts 112°
2026-05-09 09:36 -7.67047 113.04554 34998 ft 448 kts 112°
2026-05-09 09:37 -7.69444 113.10342 35006 ft 448 kts 112°
2026-05-09 09:37 -7.71851 113.16157 34996 ft 448 kts 112°
2026-05-09 09:38 -7.74242 113.21935 34998 ft 448 kts 112°
2026-05-09 09:38 -7.76635 113.27721 34437 ft 446 kts 112°
2026-05-09 09:38 -7.77831 113.30614 33709 ft 447 kts 112°
2026-05-09 09:39 -7.79028 113.33510 32958 ft 448 kts 112°
2026-05-09 09:39 -7.80220 113.36393 32211 ft 449 kts 112°
2026-05-09 09:39 -7.81427 113.39315 31434 ft 451 kts 112°
2026-05-09 09:39 -7.82636 113.42242 30613 ft 452 kts 112°
2026-05-09 09:40 -7.83849 113.45178 29809 ft 454 kts 112°
2026-05-09 09:40 -7.85067 113.48128 28983 ft 455 kts 112°
2026-05-09 09:40 -7.86288 113.51085 28098 ft 457 kts 112°
2026-05-09 09:40 -7.87502 113.54026 27187 ft 460 kts 112°
2026-05-09 09:41 -7.88739 113.57025 26224 ft 463 kts 112°
2026-05-09 09:41 -7.89973 113.60017 25483 ft 469 kts 112°
2026-05-09 09:41 -7.91238 113.63084 25091 ft 477 kts 112°
2026-05-09 09:41 -7.92525 113.66204 24995 ft 483 kts 112°
2026-05-09 09:42 -7.93815 113.69334 24996 ft 481 kts 112°
2026-05-09 09:42 -7.95100 113.72450 25001 ft 481 kts 112°
2026-05-09 09:42 -7.96381 113.75560 25000 ft 479 kts 112°
2026-05-09 09:42 -7.97657 113.78657 24998 ft 476 kts 112°
2026-05-09 09:43 -7.98908 113.81694 25002 ft 474 kts 112°
2026-05-09 09:43 -8.00362 113.84680 24993 ft 473 kts 122°
2026-05-09 09:43 -8.02433 113.87252 25003 ft 472 kts 137°
2026-05-09 09:43 -8.05119 113.89167 25001 ft 472 kts 153°
2026-05-09 09:44 -8.08212 113.90270 25001 ft 472 kts 168°
2026-05-09 09:44 -8.11434 113.90789 25005 ft 473 kts 173°
2026-05-09 09:44 -8.14709 113.91183 25001 ft 474 kts 173°
2026-05-09 09:44 -8.17995 113.91566 25003 ft 474 kts 173°
2026-05-09 09:45 -8.21286 113.91957 25000 ft 475 kts 173°
2026-05-09 09:45 -8.24551 113.92352 24994 ft 475 kts 173°
2026-05-09 09:45 -8.27846 113.92756 24819 ft 475 kts 173°
2026-05-09 09:45 -8.31129 113.93160 24566 ft 475 kts 173°
2026-05-09 09:46 -8.34385 113.93564 24285 ft 475 kts 173°
2026-05-09 09:46 -8.37664 113.93970 23467 ft 473 kts 173°
2026-05-09 09:46 -8.40926 113.94376 22564 ft 471 kts 173°
2026-05-09 09:46 -8.44171 113.94779 21756 ft 466 kts 173°
2026-05-09 09:47 -8.47335 113.95173 21016 ft 460 kts 173°
2026-05-09 09:47 -8.50500 113.95567 20256 ft 454 kts 173°
2026-05-09 09:47 -8.53622 113.95976 19464 ft 449 kts 171°
2026-05-09 09:47 -8.56619 113.96789 18685 ft 443 kts 157°
2026-05-09 09:48 -8.59270 113.98326 17905 ft 438 kts 141°
2026-05-09 09:48 -8.61375 114.00517 17118 ft 433 kts 126°
2026-05-09 09:48 -8.62807 114.03174 16342 ft 428 kts 112°
2026-05-09 09:48 -8.63804 114.05942 15570 ft 423 kts 109°
2026-05-09 09:49 -8.64720 114.08738 15105 ft 412 kts 108°
2026-05-09 09:49 -8.65612 114.11472 15011 ft 409 kts 108°
2026-05-09 09:49 -8.66512 114.14207 14909 ft 410 kts 108°
2026-05-09 09:49 -8.67418 114.16940 14662 ft 409 kts 108°
2026-05-09 09:50 -8.68329 114.19674 14406 ft 409 kts 108°
2026-05-09 09:50 -8.69235 114.22390 14160 ft 407 kts 109°
2026-05-09 09:50 -8.70142 114.25105 13909 ft 406 kts 109°
2026-05-09 09:50 -8.71033 114.27770 13587 ft 401 kts 109°
2026-05-09 09:51 -8.71919 114.30419 12990 ft 394 kts 109°
2026-05-09 09:51 -8.72799 114.33051 12333 ft 390 kts 109°
2026-05-09 09:51 -8.73649 114.35595 11234 ft 386 kts 109°
2026-05-09 09:51 -8.74520 114.38197 10946 ft 395 kts 108°
2026-05-09 09:52 -8.75392 114.40806 10790 ft 381 kts 108°
2026-05-09 09:52 -8.76205 114.43238 10717 ft 349 kts 108°
2026-05-09 09:52 -8.76949 114.45464 10554 ft 323 kts 108°
2026-05-09 09:52 -8.77657 114.47584 10314 ft 310 kts 108°
2026-05-09 09:53 -8.78323 114.49578 10240 ft 299 kts 108°
2026-05-09 09:53 -8.78992 114.51585 10087 ft 296 kts 107°
2026-05-09 09:53 -8.79639 114.53523 10020 ft 283 kts 108°
2026-05-09 09:53 -8.80255 114.55371 9924 ft 282 kts 108°
2026-05-09 09:54 -8.80890 114.57275 9618 ft 285 kts 107°
2026-05-09 09:54 -8.81524 114.59179 9207 ft 285 kts 108°
2026-05-09 09:54 -8.82157 114.61077 8844 ft 283 kts 108°
2026-05-09 09:54 -8.82786 114.62963 8473 ft 282 kts 107°
2026-05-09 09:55 -8.83411 114.64839 8104 ft 281 kts 108°
2026-05-09 09:55 -8.84020 114.66689 7743 ft 279 kts 105°
2026-05-09 09:55 -8.84318 114.68607 7393 ft 273 kts 84°
2026-05-09 09:55 -8.83928 114.70459 7059 ft 268 kts 68°
2026-05-09 09:56 -8.83254 114.72201 6786 ft 262 kts 65°
2026-05-09 09:56 -8.82560 114.73863 6385 ft 262 kts 64°
2026-05-09 09:56 -8.81836 114.75583 6018 ft 266 kts 65°
2026-05-09 09:56 -8.81121 114.77303 5687 ft 264 kts 65°
2026-05-09 09:57 -8.80414 114.79014 5342 ft 262 kts 65°
2026-05-09 09:57 -8.79713 114.80718 4996 ft 261 kts 65°
2026-05-09 09:57 -8.79027 114.82388 4680 ft 258 kts 66°
2026-05-09 09:57 -8.78358 114.84019 4472 ft 243 kts 66°
2026-05-09 09:58 -8.77726 114.85562 4262 ft 231 kts 67°
2026-05-09 09:58 -8.77121 114.87036 3862 ft 228 kts 68°
2026-05-09 09:58 -8.76520 114.88501 3532 ft 222 kts 69°
2026-05-09 09:58 -8.75935 114.89932 3226 ft 217 kts 71°
2026-05-09 09:59 -8.75549 114.91338 3014 ft 202 kts 83°
2026-05-09 09:59 -8.75462 114.92720 2717 ft 192 kts 90°
2026-05-09 09:59 -8.75463 114.94064 2513 ft 190 kts 93°
2026-05-09 09:59 -8.75477 114.95397 2411 ft 189 kts 92°
2026-05-09 10:00 -8.75491 114.96724 2314 ft 187 kts 92°
2026-05-09 10:00 -8.75502 114.98041 2223 ft 187 kts 93°
2026-05-09 10:00 -8.75491 114.99351 2111 ft 189 kts 92°
2026-05-09 10:00 -8.75453 115.00679 2009 ft 189 kts 90°
2026-05-09 10:01 -8.75407 115.02005 1912 ft 187 kts 91°
2026-05-09 10:01 -8.75357 115.03259 1817 ft 168 kts 92°
2026-05-09 10:01 -8.75312 115.04386 1727 ft 159 kts 90°
2026-05-09 10:01 -8.75270 115.05448 1707 ft 140 kts 91°
2026-05-09 10:02 -8.75232 115.06391 1702 ft 131 kts 94°
2026-05-09 10:02 -8.75200 115.07317 1611 ft 133 kts 92°
2026-05-09 10:02 -8.75167 115.08253 1444 ft 134 kts 93°
2026-05-09 10:02 -8.75133 115.09187 1220 ft 132 kts 91°
2026-05-09 10:03 -8.75098 115.10113 1038 ft 131 kts 91°
2026-05-09 10:03 -8.75063 115.11029 892 ft 131 kts 92°
2026-05-09 10:03 -8.75027 115.11948 757 ft 129 kts 92°
2026-05-09 10:03 -8.74991 115.12853 560 ft 129 kts 95°
2026-05-09 10:04 -8.74959 115.13762 404 ft 129 kts 92°
2026-05-09 10:04 -8.74911 115.14664 253 ft 131 kts 93°
2026-05-09 10:04 -8.74888 115.15575 61 ft 128 kts 92°
2026-05-09 10:04 -8.74859 115.16384 32 ft 86 kts 88°
2026-05-09 10:05 -8.74846 115.16704 30 ft 22 kts 88°
2026-05-09 10:05 -8.74839 115.16883 31 ft 29 kts 87°
2026-05-09 10:05 -8.74828 115.17114 31 ft 39 kts 86°
2026-05-09 10:05 -8.74796 115.17305 30 ft 12 kts 30°
2026-05-09 10:06 -8.74743 115.17314 32 ft 5 kts 357°
2026-05-09 10:06 -8.74699 115.17312 34 ft 8 kts 357°
2026-05-09 10:06 -8.74692 115.17311 34 ft 2 kts 358°
2026-05-09 10:06 -8.74675 115.17313 33 ft 3 kts 10°
2026-05-09 10:07 -8.74655 115.17334 35 ft 5 kts 75°
2026-05-09 10:07 -8.74650 115.17380 35 ft 8 kts 85°
2026-05-09 10:07 -8.74647 115.17443 35 ft 10 kts 88°
2026-05-09 10:07 -8.74645 115.17522 35 ft 11 kts 87°
2026-05-09 10:08 -8.74641 115.17608 35 ft 13 kts 87°
2026-05-09 10:08 -8.74638 115.17697 36 ft 12 kts 88°
2026-05-09 10:08 -8.74629 115.17770 36 ft 7 kts 51°
2026-05-09 10:08 -8.74594 115.17774 36 ft 5 kts 358°
2026-05-09 10:09 -8.74559 115.17773 36 ft 5 kts 360°
2026-05-09 10:09 -8.74539 115.17773 36 ft 0 kts 357°
2026-05-09 10:09 -8.74538 115.17773 36 ft 0 kts 357°
2026-05-09 10:09 -8.74534 115.17773 34 ft 1 kts 357°
2026-05-09 10:10 -8.74526 115.17772 35 ft 0 kts 359°